User: anonymous   Login
Location: New Canada
(47.1017°N, 68.5042°W)
Time: 07:32:49
(UTC+00:00)
Language:

CUBESAT XI-V - Orbit

View from above orbital plane
View from above orbital plane
View from above satellite
View from above satellite

Ground track
Ground track

The orbit data is extracted from the following two-line orbital elements,

1 28895U 05043F   24141.90203374  .00004558  00000-0  80945-3 0  9995
2 28895  98.1972 277.6993 0016904  84.9979 275.3154 14.67591855990689
Epoch (UTC): 20 May 2024 21:38:55
Eccentricity: 0.0016904
inclination: 98.1972°
perigee height: 657 km
apogee height: 680 km
right ascension of ascending node: 277.6993°
argument of perigee: 84.9979°
revolutions per day: 14.67591855
mean anomaly at epoch: 275.3154°
orbit number at epoch: 99068

The dashed part of the orbit path shows where the satellite is in the earth's shadow,  

DLR